Find Kuiper-00153

NORAD ID: 65773 Int'l Des: 2025-217 Owner: KUIP Country: US Constellation: amazon-leo operational
LEOCIRCULAR

現在のビュー

3D地球を読み込み中...

About Kuiper-00153

Kuiper-00153 (NORAD 65773) is a amazon-leo constellation satellite launched Sep 25, 2025 by KUIP of US. It operates in LEO, CIRCULAR orbit with a mass of 490.00 kg.

次回通過

Passes for default location (London). Set your location on the main map for personalized predictions.

高度履歴

Loading altitude history...

軌道要素

1 65773U 25217M 26224.56099187 .00001252 00000-0 19329-3 0 9993
2 65773 51.9018 56.4191 0000545 89.7522 270.3503 14.79924462 48209
Epoch: Aug 12, 2026 • Age: 10 hours

現在のステータス

高度 635.2 km
遠地点 / 近地点 N/A
速度 7.55 km/s
衛星直下点 51.43°N, 177.68°E
打ち上げ日 Sep 25, 2025
運用期間 0.8 years
タイプ internet

技術仕様

分類 Payload
質量 490.00 kg
乾燥質量 490.00 kg
総質量 490.00 kg
長さ 1.80 m
直径 0.70 m
スパン 5.00 m
形状 Box + 2 pan
製造者 KUIP
バスタイプ Kuiper
フェーズステータス In Orbit
所有者/国 KUIP/US

Most Searched